星链-34093 (STARLINK-34093)

导读 | 豆包AI

STARLINK-34093是美国于2025年5月14日发射的星链卫星,星链是SpaceX打造的低轨卫星互联网星座,计划发射数万颗卫星覆盖全球。这类卫星为偏远地区提供网络接入服务,也支持星链直连手机等服务,不过也引发了天文观测、太空碎片等争议。

基本信息
目录编号:
64015
目录名称:
STARLINK-34093
国际标识:
2025-101X
轨道中心:
EARTH
卫星名称:
星链-34093
卫星全名:
星链-34093 (STARLINK-34093)
卫星状态:
在轨 (已飞行304 天)
发射日期:
2025-05-14 UTC
国别 :
美国 (US)
星等 :
--
轨道信息
数据来源 国际轨道数据
星历时间: 2026-03-14T09:05:59+0800
17小时前
查看轨道信息
半长轴: 6861.149km
偏心率: 0.0001622
轨道倾角: 43.001°
近地点辐角 272.910°
升交点赤经 333.169°
平近点角 87.156°
近地点: 481.899km
远地点: 484.125km
周期: 94.266分钟
每日圈数: 15.275924
详细信息
固有亮度:
5
最大亮度:
2.5
卫星平台:
Starlink V1.0
覆盖范围:
全球
运营商:
太空探索技术公司
运营商所在国:
美国
制造商(研发单位):
太空探索技术公司
制造商所在国:
美国
使用方式:
暂无
卫星简介
Starlink 计划是 SpaceX 推出的全球卫星互联网项目,通过发射低轨道卫星,为全球尤其是偏远地区提供高速、低延迟的互联网服务。自 2019 年起,Starlink 已部署数千颗卫星,旨在缩小全球数字鸿沟,推动互联网普及。该项目还为军事、航空等行业提供通信支持,带来广泛经济效益。
2D轨道图
3D轨道图
轨道高度分析图
轨道倾角分析图
轨道综合分析图
查看轨道综合分析图